Weather in Lingshui

China     18°30′11″N   110°02′20″E
temp.,
°C
wind,
m/s
gust,
m/s
humid.,
%
clouds,
%
prec.,
mm/h
press.,
hPa
HPBL,
m
6 may, thu
thu623:00+26ese238246 0.1 1013167
02:00+27ne1178100 0.2 101366
05:00+26ene1280100 0.1 101299
08:00+27e2378100 0.2 1014498
11:00+30ese4464100 0.1 10151085
14:00+31ese5462100 0.1 1013971
17:00+29e5569100 0.0 1012803
20:00+26e358288 0.0 1013286
7 may, fri
fri723:00+25ene2386100 0.0 1014226
02:00+26ene1279100 0.0 1013300
05:00+25ne128129 0.0 1012262
08:00+27ne126975 0.0 1014692
11:00+31se435297 0.0 10141082
14:00+31se435521 0.0 10121019
17:00+29se44612 0.0 1010822
20:00+26ese22790 0.0 1011211
8 may, sat
sat823:00+25ene12830 0.0 1012219
02:00+24nnw11875 0.0 1011108
05:00+23nnw229216 0.0 101048
08:00+26nnw117887 0.0 1012265
11:00+31sse325350 0.0 1012906
14:00+31sse5354100 0.0 1010936
17:00+29sse446110 0.0 1008707
20:00+25se22803 0.0 1009174
9 may, sun
sun923:00+24wnw01865 0.0 1010177
02:00+23nw11885 0.0 1009109
05:00+22nw11917 0.0 100985
08:00+26wnw1179100 0.0 1010221
11:00+30s336096 0.0 1010880
14:00+31s55575 0.0 1008899
17:00+30s44650 0.0 1007761
20:00+26s23872 0.0 1007193
10 may, mon
mon1023:00+25sw239030 0.0 1009223
02:00+26sw248969 0.1 1007265
05:00+26sw358638 0.4 1006250
08:00+28sw457810 0.5 1008751
11:00+31ssw666150 0.0 10081030
14:00+31s66613 0.0 1006953
17:00+30s55672 0.0 1005888
20:00+27s348910 0.0 1006210